EW8476 Weather Reports


Display with metric or nautical units.
time (UTC)temp
F
wind
direction
speed
MPH
gust
MPH
rain 1hr
in
rain 24hr
in
rain mn
in
humidity
%
barometer
mb
20260507093534 55 25 6.0 12.0 0.00 0.61 0.00 97 939.4
20260507092521 55 11 4.0 10.0 0.00 0.61 0.00 97 940.0
20260507091609 55 29 3.0 10.0 0.00 0.61 0.00 96 939.7
20260507090555 55 1 2.0 7.0 0.00 0.61 0.00 96 939.7
20260507085552 55 76 3.0 7.0 0.00 0.61 0.00 96 939.3
20260507084611 55 15 1.0 6.0 0.00 0.61 0.00 95 939.5
20260507083552 55 7 3.0 8.0 0.00 0.61 0.00 95 939.6
20260507082537 55 12 4.0 8.0 0.00 0.61 0.00 94 939.6
20260507081619 55 30 4.0 7.0 0.00 0.61 0.00 94 939.7
20260507080558 55 13 3.0 5.0 0.00 0.61 0.00 93 939.7
20260507075539 55 23 1.0 6.0 0.00 0.61 0.00 93 939.5
20260507074656 56 21 2.0 6.0 0.00 0.61 0.00 93 939.5
20260507073623 56 49 1.0 5.0 0.00 0.61 0.00 94 939.7
20260507072549 56 18 1.0 4.0 0.00 0.61 0.00 94 939.5
20260507071532 56 18 1.0 3.0 0.00 0.61 0.00 95 939.5
20260507070611 56 21 2.0 5.0 0.00 0.61 0.00 95 939.1
20260507065553 56 35 0.0 3.0 0.00 0.61 0.00 95 939.4
20260507064548 56 0.0 1.0 0.00 0.61 0.00 95 939.3
20260507063517 56 111 0.0 2.0 0.00 0.61 0.00 95 939.4
20260507062554 56 122 1.0 2.0 0.00 0.61 0.00 95 939.1
20260507061621 56 78 1.0 6.0 0.00 0.61 0.00 95 938.5
20260507060526 56 59 1.0 3.0 0.00 0.61 0.00 94 938.7
20260507055614 56 302 3.0 8.0 0.00 0.61 0.00 95 938.7
20260507054556 57 29 4.0 8.0 0.00 0.61 0.00 94 938.5
20260507053534 57 13 4.0 8.0 0.00 0.61 0.00 94 938.5
20260507052515 57 12 4.0 10.0 0.00 0.61 0.00 94 938.9
20260507051604 57 14 3.0 9.0 0.00 0.61 0.00 94 939.0
20260507050609 57 10 3.0 6.0 0.00 0.61 0.00 94 939.2
20260507045636 57 13 4.0 8.0 0.00 0.61 0.61 94 939.2
20260507044523 57 7 2.0 6.0 0.00 0.61 0.61 94 939.4
20260507043603 57 17 5.0 8.0 0.00 0.61 0.61 94 939.3
20260507042629 57 21 5.0 11.0 0.00 0.61 0.61 94 939.6
20260507041617 57 14 5.0 10.0 0.00 0.61 0.61 95 939.6
20260507040523 57 18 5.0 12.0 0.00 0.61 0.61 95 939.4
20260507035611 57 18 3.0 8.0 0.00 0.61 0.61 95 939.4
20260507034556 57 17 3.0 9.0 0.00 0.61 0.61 95 938.9
20260507033544 57 21 3.0 7.0 0.00 0.61 0.61 95 939.0
20260507032530 57 12 3.0 9.0 0.00 0.61 0.61 95 938.9
20260507031517 57 24 4.0 7.0 0.00 0.61 0.61 95 938.9
20260507030603 57 15 3.0 9.0 0.00 0.61 0.61 95 938.7
20260507025540 57 18 5.0 13.0 0.00 0.61 0.61 95 938.7
20260507024527 57 21 4.0 14.0 0.00 0.61 0.61 96 938.5
20260507023636 57 14 7.0 15.0 0.00 0.61 0.61 96 938.4
20260507022602 57 14 7.0 15.0 0.00 0.61 0.61 96 938.3
20260507021549 57 30 4.0 13.0 0.00 0.61 0.61 96 939.0
20260507020536 57 11 4.0 9.0 0.00 0.61 0.61 96 939.1
20260507015524 57 8 4.0 7.0 0.00 0.61 0.61 96 939.0
20260507014601 57 2 6.0 12.0 0.00 0.61 0.61 95 938.8
20260507013629 57 12 6.0 11.0 0.00 0.61 0.61 95 938.6
20260507012536 57 5 5.0 10.0 0.00 0.61 0.61 95 938.3
20260507011522 57 4 5.0 11.0 0.00 0.61 0.61 95 938.3
20260507010609 57 354 6.0 10.0 0.00 0.61 0.61 94 938.3
20260507005547 57 5 6.0 11.0 0.00 0.61 0.61 94 938.2
20260507004529 58 357 4.0 9.0 0.00 0.61 0.61 94 938.2
20260507003516 58 4 6.0 10.0 0.00 0.61 0.61 93 938.0
20260507002555 58 15 4.0 9.0 0.00 0.61 0.61 93 938.0
20260507001602 58 5 5.0 9.0 0.00 0.61 0.61 93 938.0
20260507000548 58 352 6.0 11.0 0.00 0.61 0.61 93 937.6
20260506235611 58 357 5.0 10.0 0.00 0.61 0.61 93 937.7
20260506234559 58 6 7.0 13.0 0.00 0.61 0.61 93 937.5
20260506233545 58 0 6.0 10.0 0.00 0.61 0.61 93 937.5
20260506232526 58 355 6.0 10.0 0.00 0.61 0.61 93 937.6
20260506231609 58 6 4.0 10.0 0.00 0.61 0.61 93 937.6
20260506230550 58 357 5.0 12.0 0.00 0.61 0.61 94 937.4
20260506225554 58 356 6.0 15.0 0.00 0.61 0.61 94 937.5
20260506224609 58 350 6.0 14.0 0.00 0.61 0.61 95 937.4
20260506223550 58 352 8.0 13.0 0.00 0.61 0.61 95 937.7
20260506222532 58 350 6.0 11.0 0.00 0.61 0.61 95 937.6
20260506221515 57 357 5.0 10.0 0.00 0.61 0.61 96 937.6
20260506220603 57 348 6.0 12.0 0.00 0.61 0.61 96 937.6
20260506215549 57 358 7.0 13.0 0.00 0.61 0.61 96 937.6
20260506214537 57 350 8.0 11.0 0.00 0.61 0.61 96 937.6
20260506213523 57 355 7.0 13.0 0.00 0.61 0.61 96 937.2
20260506212625 57 0 8.0 13.0 0.00 0.61 0.61 97 937.6
20260506211606 57 359 7.0 13.0 0.00 0.61 0.61 97 937.5
20260506210543 57 349 7.0 13.0 0.00 0.61 0.61 97 937.8
20260506205606 57 343 9.0 14.0 0.00 0.61 0.61 98 938.0
20260506204548 57 353 8.0 15.0 0.00 0.61 0.61 98 937.7
20260506203527 57 344 6.0 12.0 0.00 0.61 0.61 98 937.9
20260506202609 57 359 7.0 13.0 0.00 0.61 0.61 98 938.0
20260506201609 57 356 7.0 14.0 0.00 0.60 0.60 98 938.0
20260506200536 57 352 9.0 12.0 0.00 0.60 0.60 98 938.1
20260506195523 57 359 7.0 14.0 0.00 0.60 0.60 98 938.0
20260506194651 57 346 8.0 14.0 0.00 0.60 0.60 98 938.1
20260506193609 57 337 8.0 12.0 0.00 0.60 0.60 98 938.3
20260506192532 57 335 7.0 17.0 0.00 0.60 0.60 98 938.2
20260506191518 56 356 9.0 13.0 0.00 0.60 0.60 98 938.2
20260506190606 56 339 6.0 11.0 0.00 0.60 0.60 97 938.3
20260506185553 56 321 6.0 11.0 0.00 0.60 0.60 97 938.4
20260506184540 55 338 8.0 13.0 0.00 0.60 0.60 97 938.4
20260506183525 56 354 7.0 14.0 0.00 0.60 0.60 97 938.3
20260506182613 57 330 8.0 14.0 0.03 0.60 0.60 97 938.2
20260506181620 57 331 7.0 15.0 0.05 0.60 0.60 98 938.4
20260506180545 60 322 7.0 13.0 0.05 0.59 0.59 97 938.6
20260506175522 59 335 6.0 15.0 0.05 0.59 0.59 97 938.5
20260506174610 59 343 9.0 15.0 0.05 0.59 0.59 97 938.6
20260506173601 58 340 7.0 12.0 0.05 0.59 0.59 97 938.6
20260506172548 59 325 8.0 17.0 0.03 0.57 0.57 97 939.1
20260506171532 59 340 8.0 12.0 0.00 0.54 0.54 96 938.3
20260506170519 60 350 8.0 15.0 0.00 0.54 0.54 96 937.9
20260506165601 60 337 6.0 11.0 0.00 0.54 0.54 96 938.2
20260506164539 61 337 8.0 12.0 0.00 0.54 0.54 95 938.3
20260506163526 62 340 7.0 12.0 0.00 0.54 0.54 95 938.3
20260506162614 62 337 7.0 12.0 0.00 0.54 0.54 95 938.3
20260506161601 62 339 9.0 14.0 0.00 0.54 0.54 95 938.3
20260506160548 62 360 4.0 9.0 0.00 0.54 0.54 96 937.6
20260506155554 61 13 4.0 8.0 0.01 0.54 0.54 96 937.4
20260506154521 60 339 4.0 6.0 0.11 0.54 0.54 97 937.4
20260506153609 59 350 4.0 8.0 0.52 0.54 0.54 97 937.2
20260506152554 60 30 6.0 9.0 0.54 0.54 0.54 96 937.5
20260506151621 58 359 7.0 15.0 0.54 0.54 0.54 97 937.4
20260506150518 58 359 7.0 13.0 0.54 0.54 0.54 97 937.8
20260506145605 58 316 8.0 19.0 0.53 0.53 0.53 96 938.0
20260506144551 59 314 12.0 21.0 0.43 0.44 0.44 97 938.6
20260506143532 61 302 11.0 27.0 0.02 0.02 0.02 97 937.2
20260506142520 62 6 6.0 11.0 0.00 0.01 0.01 97 937.3
20260506141622 61 26 5.0 9.0 0.00 0.01 0.01 97 936.8
20260506140546 69 306 9.0 27.0 0.00 0.00 0.00 97 938.6
20260506135534 71 272 2.0 5.0 0.00 0.00 0.00 98 938.2
20260506134517 70 177 2.0 6.0 0.00 0.00 0.00 98 937.7
20260506133605 71 137 2.0 7.0 0.00 0.00 0.00 98 937.1
20260506132546 71 358 2.0 4.0 0.00 0.00 0.00 98 936.9
20260506131553 71 341 2.0 5.0 0.00 0.00 0.00 98 936.6
20260506130615 71 342 3.0 4.0 0.00 0.00 0.00 97 936.6
20260506125557 70 338 3.0 4.0 0.00 0.00 0.00 97 937.0
20260506124541 70 350 2.0 4.0 0.00 0.00 0.00 97 936.8
20260506123528 70 324 2.0 4.0 0.00 0.00 0.00 97 936.5
20260506122615 70 333 2.0 3.0 0.00 0.00 0.00 97 936.6
20260506121600 70 275 1.0 3.0 0.00 0.00 0.00 97 936.8
20260506120549 70 301 2.0 4.0 0.00 0.00 0.00 97 936.8
20260506115538 70 222 3.0 6.0 0.00 0.00 0.00 97 936.7
20260506114613 70 210 4.0 8.0 0.00 0.00 0.00 97 936.7
20260506113554 70 224 4.0 7.0 0.00 0.00 0.00 97 936.7
20260506112541 70 249 2.0 5.0 0.00 0.00 0.00 97 936.6
20260506111531 70 168 2.0 5.0 0.00 0.00 0.00 97 936.8
20260506110617 71 204 5.0 11.0 0.00 0.00 0.00 97 936.8
20260506105555 71 217 3.0 8.0 0.00 0.00 0.00 97 936.7
20260506104541 71 194 4.0 10.0 0.00 0.00 0.00 97 936.8
20260506103525 71 183 7.0 13.0 0.00 0.00 0.00 97 936.6
20260506102515 71 199 9.0 14.0 0.00 0.00 0.00 97 936.5
20260506101552 71 182 7.0 13.0 0.00 0.00 0.00 97 936.5
20260506100534 71 172 6.0 15.0 0.00 0.00 0.00 97 936.4
20260506095642 71 179 6.0 13.0 0.00 0.00 0.00 96 936.3
20260506094701 71 174 7.0 11.0 0.00 0.00 0.00 96 936.2